Tracking 33446 objects as of 10-Mar-2026
HD Live streaming from Space Station
objects crossing your sky now

STARLINK-35557

Track STARLINK-35557 now!
10-day predictions
STARLINK-35557 is classified as:


NORAD ID: 66237
Int'l Code: 2025-245D
Perigee: 481.6 km
Apogee: 483.1 km
Inclination: 53.2 °
Period: 94.1 minutes
Semi major axis: 6853 km
RCS: Unknown
Launch date: October 29, 2025
Source: United States (US)
Launch site: AIR FORCE EASTERN TEST RANGE (AFETR)
Your satellite tracking list
Your tracking list is empty




NASA's NSSDC Master Catalog

Two Line Element Set (TLE):
1 66237U 25245D   26069.01113663  .00014774  00000-0  50992-3 0  9997
2 66237  53.1570 282.5554 0001069  91.6324 268.4799 15.30201364 21305
Source of the keplerian elements: AFSPC